Weather in Zlatoust

Russia / Novosibirsk Oblast     55°15′30″N   84°08′34″E
temp.,
°C
wind,
m/s
gust,
m/s
humid.,
%
clouds,
%
prec.,
mm/h
press.,
hPa
HPBL,
m
24 january, sun
sun2401:00−19wsw3897100 0.4 1030497
04:00−21w3798100 0.3 1031282
07:00−19sw2498100 0.4 1030133
10:00−30wnw3697100 0.0 1036143
13:00−31wnw359793 0.0 1038277
16:00−32w3595100 0.0 1039326
19:00−37w349770 0.0 104357
22:00−40w339824 0.0 104538
25 january, mon
mon2501:00−42wsw239833 0.0 104720
04:00−43sw339751 0.0 104833
07:00−44sw339653 0.0 105033
10:00−43ssw239562 0.0 105033
13:00−38wsw239252 0.0 1048234
16:00−37wsw239164 0.0 1047274
19:00−35sse2393100 0.0 104685
22:00−34se2392100 0.0 104453
26 january, tue
tue2601:00−33se2293100 0.0 104262
04:00−30se2396100 0.0 104090
07:00−29ese2499100 0.2 1039114
10:00−31e229884 0.1 104119
13:00−25ese229593 0.1 1037166
16:00−27e129566 0.0 1040141
19:00−31ese229739 0.0 104119
22:00−24se3498100 0.0 1035103
27 january, wed
wed2701:00−26se359770 0.0 1039117
04:00−21sse4898100 0.1 1037265
07:00−18s51096100 0.7 1033412
10:00−10sw71494100 0.9 1023626
13:00−11sw81494100 2.1 1027619
16:00−8sw81593100 1.1 1025688
19:00−5wsw101792100 1.9 1017926
22:00−4wsw91693100 0.8 1024847
28 january, thu
thu2801:00−5wsw81491100 1.1 1025849
04:00−8wsw71394100 0.3 1027579
07:00−9wsw61194100 0.7 1028423
10:00−9wsw51094100 0.4 1030345
13:00−34nw588922 0.0 1038463
16:00−33wnw468914 0.0 1041369
19:00−36w34957 0.0 104544
22:00−8wsw61194100 0.3 1030398